Content
SEND FEEDBACK

Daily
Averages
Monthly
Summary
United States of America

ST. LOUIS, MISSOURI


Home > North America > United States > Missouri
Elevation: 535 feet     Latitude: 38 45N     Longitude: 090 22W

WEATHER
 
SELECT A DAY
Number of Records: 196,500;   Date Range: 1/1/95 - 8/30/14
 
SHARE

PRINT THIS DATA

[ ← Previous Day ]
WEATHER ALMANAC - SEPTEMBER 26, 2013
[ Next Day → ]
[ °C ]   °F
Weather ElementAverageHighLow
Temperature65 °F84 °F (2:54 pm)57 °F (6:54 am)
Dewpoint58.9 °F64.9 °F (9:54 am)55.4 °F (6:45 am)
Humidity84.3 %100 % (12:17 am)41 % (2:54 pm)
Barometer29.93 in29.99 in (9:54 am)29.86 in (12:54 am)
Wind Speed1.4 mph10.4 mph (12:54 pm)
Wind Gust17.3 mph (1:54 pm)
Weather ElementAverage
Visibility4 mi
Wind DirectionNNE (26.4 °)

Weather ElementTotal
Precipitation---
Cooling Degree Days5.5 (Base 65)
Growing Degree Days20.5 (Base 50)
Averaged from 47 records on September 26, 2013
WEATHER CONDITIONS BREAKOUT
WIND DIRECTION BREAKOUT
WEATHER BY HOUR - SEPTEMBER 26, 2013
[ °C ]   °F
Local TimeTemperatureDewpointHumidityBarometerVisibilityWind DirectionWind SpeedGust SpeedPrecipitationEventsConditions
12:17 AM60.8 °F60.8 °F100 %29.87 in1.0 miCalmMist
12:28 AM62.6 °F60.8 °F94 %29.87 in0.5 miCalmFogFog
12:51 AM60.8 °F60.8 °F100 %29.87 in1.0 miCalmClear
12:54 AM61.0 °F60.1 °F97 %29.86 in1.0 miCalmClear
1:05 AM62.6 °F60.8 °F94 %29.87 in0.5 miCalmFogFog
1:12 AM60.8 °F60.8 °F100 %29.87 in2.0 miCalmClear
1:25 AM60.8 °F60.8 °F100 %29.88 in1.5 miCalmClear
1:36 AM59.0 °F57.2 °F94 %29.88 in0.8 miCalmClear
1:54 AM60.1 °F59.0 °F96 %29.87 in0.2 miCalmFogFog
2:54 AM59.0 °F59.0 °F100 %29.88 in0.5 miCalmFogFog
2:58 AM60.8 °F59.0 °F94 %29.90 in0.2 miCalmFogFog
3:15 AM59.0 °F57.2 °F94 %29.90 in0.8 miCalmMist
3:26 AM60.8 °F59.0 °F94 %29.90 in0.2 miCalmFogFog
3:54 AM59.0 °F57.9 °F96 %29.89 in0.2 miCalmFogFog
4:23 AM59.0 °F57.2 °F94 %29.91 in0.5 miCalmFogFog
4:40 AM57.2 °F57.2 °F100 %29.92 in0.2 miCalmFogFog
4:54 AM57.9 °F57.9 °F100 %29.91 in0.2 miCalmFogFog
5:17 AM57.2 °F57.2 °F100 %29.92 in0.2 miCalmFogFog
5:42 AM57.2 °F57.2 °F100 %29.93 in0.2 miCalmFogFog
5:48 AM57.2 °F57.2 °F100 %29.93 in2.0 miCalmOvercast
5:49 AM57.9 °F57.0 °F97 %29.91 in2.0 miCalmOvercast
5:56 AM57.2 °F57.2 °F100 %29.94 in1.0 miCalmMist
6:14 AM57.2 °F57.2 °F100 %29.94 in1.0 miCalmMist
6:28 AM57.2 °F57.2 °F100 %29.95 in1.0 miCalmMist
6:45 AM57.2 °F55.4 °F94 %29.96 in0.2 miCalmFogFog
6:54 AM57.0 °F57.0 °F100 %29.95 in0.2 miCalmFogFog
7:10 AM57.2 °F57.2 °F100 %29.97 in0.2 miCalmFogFog
7:32 AM57.2 °F57.2 °F100 %29.97 in0.5 miCalmFogFog
7:36 AM59.0 °F57.2 °F94 %29.98 in1.5 miCalmPartly Cloudy
7:43 AM59.0 °F59.0 °F100 %29.98 in4.0 miCalmClear
7:54 AM60.1 °F59.0 °F96 %29.97 in6.0 miCalmClear
8:54 AM66.9 °F63.0 °F87 %29.98 in7.0 miCalmClear
9:54 AM73.9 °F64.9 °F73 %29.99 in8.0 miCalmClear
10:54 AM78.1 °F63.0 °F60 %29.98 in10.0 miSE (130°)6.9 mphPartly Cloudy
11:54 AM81.0 °F62.1 °F52 %29.98 in10.0 miSE (140°)6.9 mphPartly Cloudy
12:54 PM82.9 °F62.1 °F49 %29.97 in10.0 miEast (100°)10.4 mphPartly Cloudy
1:54 PM82.9 °F60.1 °F46 %29.95 in10.0 miESE (120°)6.9 mph17.3 mphScattered Clouds
2:54 PM84.0 °F57.9 °F41 %29.94 in10.0 miEast (80°)5.8 mphScattered Clouds
3:54 PM84.0 °F59.0 °F43 %29.93 in10.0 miESE (120°)5.8 mphScattered Clouds
4:54 PM84.0 °F59.0 °F43 %29.93 in10.0 miEast (100°)6.9 mphScattered Clouds
5:54 PM81.0 °F60.1 °F49 %29.94 in10.0 miEast (90°)4.6 mphPartly Cloudy
6:54 PM77.0 °F59.0 °F54 %29.94 in10.0 miESE (110°)4.6 mphPartly Cloudy
7:54 PM73.9 °F59.0 °F59 %29.95 in10.0 miESE (110°)4.6 mphClear
8:54 PM69.1 °F60.1 °F73 %29.97 in10.0 miCalmClear
9:54 PM66.9 °F59.0 °F76 %29.98 in10.0 miCalmClear
10:54 PM70.0 °F57.0 °F63 %29.98 in10.0 miCalmClear
11:54 PM69.1 °F57.0 °F65 %29.99 in10.0 miSE (140°)3.5 mphClear
Hourly data recorded from KSUS, located miles away from St. Louis, Missouri







STORIES FROM OUR PARTNERS